Погода в Нижних Торгаях

Украина / Херсонская область     46°46′55″N   34°15′39″E
темп.,
°C
ветер,
м/с
пор.,
м/с
влажн.,
%
обл.,
%
осадки,
мм/ч
давл.,
гПа
погр.,
м
14 апреля, ср
ср1400:00+9ююв228461 0.0 102077
03:00+7вюв229337 0.0 101914
06:00+6вюв22946 0.0 101922
09:00+11вюв45734 0.0 1018532
12:00+15юв56470 0.0 10161209
15:00+16юв664312 0.0 10151419
18:00+13юв6760100 0.0 1015776
21:00+10вюв61074100 0.0 1015327
15 апреля, чт
чт1500:00+9ююв3680100 0.0 1014258
03:00+9юв3686100 0.1 1014275
06:00+8юв3594100 5.4 1013221
09:00+10ююз5786100 5.6 1014648
12:00+13юз7863100 0.1 10141442
15:00+12юз896097 0.1 10141517
18:00+10юз797049 0.1 10151020
21:00+8юз698097 0.1 1015585
16 апреля, пт
пт1600:00+6ююз5119188 0.0 1015408
03:00+7юз61080100 0.0 1015763
06:00+7ююз5108384 0.0 1015557
09:00+9юз697370 0.1 1016914
12:00+12юз795796 0.5 10161535
15:00+12юз795193 1.0 10171888
18:00+11зюз68555 0.1 10171447
21:00+6зюз357545 0.2 101986
17 апреля, сб
сб1700:00+6юз498287 0.0 1020278
03:00+6юз238598 0.1 1020145
06:00+4ю33935 0.0 102156
09:00+9ююз457122 0.0 1021593
12:00+14ююз565399 0.0 10211755
15:00+14зюз3448100 0.1 10201657
18:00+13з1258100 0.0 102158
21:00+8ю3674100 0.0 1021135
18 апреля, вс
вс1800:00+6ююв2275100 0.0 102122
03:00+6в2277100 0.0 102123
06:00+6в3573100 0.0 1020110
09:00+11в585551 0.1 1020497
12:00+15в665150 0.0 10201359
15:00+17вюв7750100 0.0 10181627
18:00+13вюв6968100 0.1 1018746
21:00+11в61284100 0.6 1019535